Flag for U.S.A. Weather past 2 weeks in Toccoa, Georgia, U.S.A.

Now
45 °F

Light rain. Overcast.


Feels Like: 44 °F
Forecast: 41 / 54 °F
Wind: 3 mph from Northeast

Location: Clemson-Oconee County Airport

Current Time: Dec 20, 2014 at 6:49:34 AM

Latest Report: Dec 20, 2014 at 5:54 AM


Visibility: 10 mi

Pressure: 30.16 "Hg

Humidity: 80%

Dew point: 39 °F

Location of ToccoaLocation

Historic Weather in Toccoa — Graph

°F

Toccoa temperature yesterday

Maximum temperature yesterday: 57 °F (at 1:54 PM)
Minimum temperature yesterday: 38 °F (at 7:54 AM)
Average temperature yesterday: 48 °F

Past Weeks' High & Low Weather Summary

 TemperatureHumidityPressure
High67 °F (Dec 14, 2:54 PM)90% (Dec 18, 5:54 AM)30.44 "Hg (Dec 18, 5:54 AM)
Low29 °F (Dec 11, 8:00 AM)17% (Dec 12, 3:54 PM)29.88 "Hg (Dec 16, 1:54 PM)
Average48 °F59%30.14 "Hg
* Reported Dec 5 5:54 AM — Dec 20 5:54 AM, Toccoa, Weather by CustomWeather, © 2014

Note: Actual official high and low records may vary slightly from our data, if they occured in-between our weather recording intervals... More about our weather records

Advertising

Toccoa weather history for previous 24 hours

 ConditionsComfort  
Time TempWeatherWind HumidityBarometerVisibility
5:54 AM
Dec 20
45 °FLight rain. Overcast.3 mph80%30.16 "Hg10 mi
4:54 AM45 °FLight rain. Overcast.3 mph80%30.15 "Hg10 mi
3:54 AM47 °FLight rain. Overcast.5 mph69%30.15 "Hg10 mi
2:54 AM48 °FLight rain. Overcast.3 mph66%30.15 "Hg10 mi
1:54 AM48 °FOvercast.No wind66%30.15 "Hg10 mi
12:54 AM49 °FOvercast.No wind66%30.15 "Hg10 mi
11:54 PM
Dec 19
48 °FClear.No wind66%30.16 "Hg10 mi
10:54 PM49 °FPassing clouds.No wind61%30.17 "Hg10 mi
9:54 PM50 °FClear.No wind57%30.15 "Hg10 mi
8:54 PM49 °FClear.3 mph61%30.14 "Hg10 mi
7:54 PM50 °FClear.No wind59%30.14 "Hg10 mi
6:54 PM52 °FClear.No wind50%30.14 "Hg10 mi
5:54 PM54 °FClear.3 mph45%30.12 "Hg10 mi
4:54 PM54 °FSunny.No wind49%30.11 "Hg10 mi
3:54 PM57 °FSunny.5 mph41%30.10 "Hg10 mi
2:54 PM57 °FSunny.No wind39%30.10 "Hg10 mi
1:54 PM57 °FSunny.No wind39%30.09 "Hg10 mi
12:54 PM56 °FSunny.5 mph39%30.13 "Hg10 mi
11:54 AM54 °FSunny.No wind41%30.14 "Hg10 mi
10:54 AM50 °FSunny.5 mph46%30.17 "Hg10 mi
9:54 AM46 °FSunny.5 mph56%30.18 "Hg10 mi
8:54 AM41 °FSunny.No wind76%30.16 "Hg10 mi
7:54 AM38 °FSunny.No wind76%30.15 "Hg10 mi
6:54 AM39 °FClear.No wind76%30.12 "Hg10 mi
Weather by CustomWeather, © 2014

See weather overviewHow to use our weather pages